KLM25M EKYT-EHAM

Flight info

Callsign KLM25M
Flight time N/A
Altitude 34000
Route LASRO N607 BAVTA DCT IPSUB P174 KUBAT T200 BLUFA
Aircraft E190/M-SDE3GILORVW/S

Departure

Time 2026-05-07 18:52
Airport Aalborg Airport (EKYT)

Arrival

Time N/A
Airport Amsterdam Airport Schiphol (EHAM)
Time Latitude Longitude Altitude Speed Heading
2026-05-07 18:02 57.08701 9.86977 14 ft 0 kts 56°
2026-05-07 18:42 57.08701 9.86978 14 ft 0 kts 56°
2026-05-07 18:42 57.08695 9.86962 14 ft 2 kts 56°
2026-05-07 18:42 57.08686 9.86938 14 ft 2 kts 56°
2026-05-07 18:43 57.08677 9.86915 14 ft 2 kts 56°
2026-05-07 18:43 57.08672 9.86899 14 ft 0 kts 56°
2026-05-07 18:43 57.08661 9.86885 14 ft 2 kts
2026-05-07 18:43 57.08648 9.86890 14 ft 1 kts 320°
2026-05-07 18:44 57.08644 9.86896 14 ft 0 kts 317°
2026-05-07 18:44 57.08644 9.86895 14 ft 0 kts 317°
2026-05-07 18:46 57.08650 9.86886 14 ft 4 kts 318°
2026-05-07 18:47 57.08696 9.86814 14 ft 13 kts 318°
2026-05-07 18:47 57.08774 9.86693 14 ft 15 kts 321°
2026-05-07 18:47 57.08859 9.86572 14 ft 15 kts 320°
2026-05-07 18:47 57.08948 9.86442 14 ft 16 kts 323°
2026-05-07 18:48 57.09041 9.86307 14 ft 17 kts 324°
2026-05-07 18:48 57.09139 9.86172 14 ft 18 kts 323°
2026-05-07 18:48 57.09240 9.86031 14 ft 18 kts 322°
2026-05-07 18:48 57.09335 9.85871 14 ft 18 kts 285°
2026-05-07 18:49 57.09326 9.85630 14 ft 19 kts 263°
2026-05-07 18:49 57.09309 9.85386 14 ft 19 kts 262°
2026-05-07 18:49 57.09288 9.85133 14 ft 20 kts 251°
2026-05-07 18:49 57.09278 9.84919 14 ft 13 kts 265°
2026-05-07 18:50 57.09268 9.84731 14 ft 16 kts 264°
2026-05-07 18:50 57.09253 9.84481 14 ft 23 kts 264°
2026-05-07 18:50 57.09227 9.84134 14 ft 30 kts 258°
2026-05-07 18:50 57.09206 9.83762 14 ft 20 kts 264°
2026-05-07 18:51 57.09201 9.83604 14 ft 12 kts 287°
2026-05-07 18:51 57.09255 9.83470 14 ft 14 kts 308°
2026-05-07 18:51 57.09345 9.83388 14 ft 16 kts 13°
2026-05-07 18:51 57.09392 9.83647 14 ft 47 kts 83°
2026-05-07 18:52 57.09468 9.84833 14 ft 138 kts 83°
2026-05-07 18:52 57.09602 9.86892 433 ft 179 kts 85°
2026-05-07 18:52 57.09724 9.89068 1714 ft 173 kts 84°
2026-05-07 18:52 57.09868 9.91231 2594 ft 183 kts 84°
2026-05-07 18:53 57.09981 9.93680 3247 ft 206 kts 95°
2026-05-07 18:53 57.09329 9.96222 3698 ft 244 kts 136°
2026-05-07 18:53 57.07742 9.97599 4403 ft 269 kts 174°